Location: Civry
(47.2902°N, 4.6156°E)
Time: 13:46:18
(UTC+00:00)

COSMOS 2406 - Visible Passes

Search period start: 06 August 2020 00:00
Search period end: 16 August 2020 00:00
Orbit: 844 x 863 km, 71.0° (Epoch: 05 August)

Date Brightness Start Highest point End Pass type
(mag) Time Alt. Az. Time Alt. Az. Time Alt. Az.
06 Aug 6.3 03:32:00 10° N 03:34:30 13° NNE 03:37:00 10° ENE visible
06 Aug 3.3 20:11:16 10° S 20:16:52 56° ESE 20:22:28 10° NE visible
06 Aug 5.1 21:56:31 10° WSW 22:01:30 30° NW 22:06:31 10° NNE visible
07 Aug 6.3 03:20:31 10° N 03:23:03 13° NNE 03:25:36 10° ENE visible
07 Aug 3.3 19:59:47 10° S 20:05:23 56° ESE 20:11:00 10° NE visible
07 Aug 5.2 21:45:03 10° WSW 21:50:03 29° NW 21:55:02 10° NNE visible
08 Aug 6.4 03:09:01 10° N 03:11:36 13° NNE 03:14:10 10° ENE visible
08 Aug 3.3 19:48:18 10° S 19:53:55 57° ESE 19:59:32 10° NE visible
08 Aug 5.2 21:33:37 10° WSW 21:38:35 29° NW 21:43:33 10° NNE visible
09 Aug 6.4 02:57:32 10° N 03:00:09 13° NNE 03:02:45 10° ENE visible
09 Aug 3.3 19:36:49 10° S 19:42:26 58° ESE 19:48:04 10° NE visible
09 Aug 5.3 21:22:10 10° WSW 21:27:07 29° NW 21:32:04 10° N visible
10 Aug 6.4 02:46:02 10° N 02:48:41 13° NNE 02:51:20 10° ENE visible
10 Aug 5.3 21:10:43 10° WSW 21:15:40 29° NW 21:20:36 10° N visible
11 Aug 6.4 02:34:32 10° N 02:37:14 13° NNE 02:39:55 10° ENE visible
11 Aug 5.4 20:59:16 10° WSW 21:04:11 28° NW 21:09:06 10° N visible
12 Aug 6.4 02:23:03 10° N 02:25:46 13° NE 02:28:29 10° ENE visible
12 Aug 5.4 20:47:50 10° WSW 20:52:44 28° NW 20:57:38 10° N visible
13 Aug 6.5 02:11:33 10° N 02:14:19 14° NE 02:17:04 10° ENE visible
13 Aug 4.2 03:54:27 10° NNW 04:00:02 53° ENE 04:05:34 10° SE visible
13 Aug 5.5 20:36:23 10° WSW 20:41:15 28° NW 20:46:09 10° N visible
14 Aug 6.5 02:00:03 10° N 02:02:51 14° NE 02:05:39 10° ENE visible
14 Aug 4.2 03:42:58 10° NNW 03:48:34 53° ENE 03:54:06 10° SE visible
14 Aug 5.5 20:24:55 10° WSW 20:29:48 28° NW 20:34:40 10° N visible
15 Aug 6.4 01:48:34 10° N 01:51:23 14° NE 01:54:13 10° ENE visible
15 Aug 4.1 03:31:30 10° NNW 03:37:06 54° ENE 03:42:38 10° SE visible
15 Aug 5.6 20:13:29 10° WSW 20:18:19 27° NW 20:23:11 10° N visible
